Wind_Speed
11 9 9 8 9 10 10 9 8 7 6 6 6 6 7 8 10 11 12 12 11 10 11 13 12 11 11 16 21 22 29 12 14 17 7 6 10 17 22 28 27 25 22 14 14
11 10 9 7 7 8 10 11 11 10 9 8 8 7 7 7 6 9 12 11 13 13 12 11 10 10 11 13 13 18 30 10 18 17 19 4 10 17 23 29 24 13 12 16 15
12 11 10 8 7 7 7 9 10 11 11 10 9 8 7 7 8 7 9 10 11 12 14 15 14 11 10 11 15 36 29 21 19 18 11 6 14 16 23 30 15 12 14 22 19
14 13 11 10 8 7 6 6 7 8 9 10 10 8 8 9 8 8 9 10 11 10 11 13 14 16 13 14 26 38 29 29 23 13 5 15 19 22 32 30 20 16 13 18 22
16 15 13 12 10 8 7 7 6 7 8 9 9 8 7 9 11 9 10 10 11 12 13 13 15 18 22 24 30 39 35 35 29 17 13 15 19 30 33 33 30 18 14 18 20
19 17 16 14 13 11 10 9 8 7 7 8 10 10 9 10 12 12 11 11 12 12 14 16 15 15 13 18 24 30 38 34 26 19 18 18 23 29 25 30 26 18 15 18 18
21 20 18 17 15 14 13 12 11 9 8 8 7 8 11 10 13 13 14 13 13 13 14 13 10 11 10 16 19 23 29 27 24 18 23 25 31 33 28 26 25 20 16 17 19
22 22 21 20 19 18 17 16 15 13 11 9 8 9 8 14 14 14 14 15 15 15 15 13 14 13 14 14 16 18 18 14 13 18 19 28 33 30 29 28 27 18 12 14 16
22 23 23 23 22 22 21 20 18 16 14 13 11 12 8 10 14 14 16 15 16 16 16 16 17 16 17 18 15 11 8 8 9 8 15 18 10 18 24 25 24 21 21 19 17
22 23 24 25 25 25 24 23 21 20 18 17 16 15 13 12 12 16 16 15 16 16 17 17 18 16 17 16 11 11 18 18 10 3 9 10 13 16 27 27 25 26 26 22 21
20 20 21 23 24 25 26 25 24 23 21 21 18 19 17 17 15 15 15 16 16 14 16 18 16 14 17 15 17 15 21 24 19 12 16 21 10 15 24 30 27 31 32 25 25
24 23 22 23 22 24 24 22 24 22 21 22 20 22 19 19 17 18 17 16 16 16 17 14 17 20 21 20 17 19 22 22 20 15 20 22 15 14 26 30 33 33 30 26 24
28 28 27 26 26 27 25 22 25 22 21 22 22 21 23 20 21 21 19 18 17 18 17 15 20 20 20 21 21 22 23 22 19 19 22 26 20 22 25 27 33 35 30 27 26
33 32 31 30 30 29 26 25 25 24 23 23 23 20 19 20 19 22 20 20 19 18 19 17 21 20 21 20 22 19 23 27 21 20 25 24 22 23 24 26 31 34 36 29 27
35 33 32 32 32 31 27 29 28 25 26 25 22 23 25 18 24 22 23 22 19 20 19 17 22 24 23 19 21 17 21 23 23 23 31 31 34 32 30 33 37 34 32 30 22
36 33 33 32 32 29 30 33 30 30 27 27 20 19 22 21 22 21 20 20 22 22 18 18 22 23 19 19 21 17 24 25 24 24 27 26 32 35 29 37 42 35 36 32 26
38 35 35 32 34 32 33 32 32 33 26 29 27 29 27 24 24 24 22 20 19 19 16 19 19 20 18 17 17 17 19 20 23 25 25 22 27 30 29 31 33 32 29 23 28
37 34 35 35 33 33 32 33 35 27 27 33 34 30 29 28 26 27 27 24 22 21 21 20 21 20 12 15 17 18 23 25 21 23 25 25 25 27 27 27 26 31 28 28 22
35 33 34 33 31 32 33 34 28 26 32 34 36 35 34 31 28 27 28 26 24 24 24 23 20 24 26 27 21 18 22 19 22 23 25 22 23 23 24 28 29 31 33 33 35
34 32 34 32 32 33 34 31 24 26 31 34 37 36 33 33 33 31 29 25 23 22 25 23 24 23 24 26 22 20 21 21 23 25 27 26 19 27 31 33 37 38 37 35 38
34 34 33 33 31 31 30 28 26 30 35 37 39 42 35 31 32 32 33 26 24 21 24 23 28 25 26 26 22 18 28 23 24 29 33 31 31 28 31 32 40 43 43 44 34
34 37 34 34 30 28 27 28 31 33 37 38 38 38 35 32 35 34 34 31 33 28 28 27 28 27 28 20 25 29 32 27 22 29 36 38 38 37 37 37 37 37 40 46 45
34 36 34 35 30 28 31 29 29 35 40 39 39 37 35 36 34 40 41 33 30 36 33 30 32 30 26 34 30 30 30 31 31 30 34 35 36 38 40 46 45 44 42 44 43
38 38 36 37 35 34 31 27 26 32 37 35 37 32 32 35 39 42 43 43 42 40 40 36 36 36 29 31 33 33 37 41 40 42 37 34 31 39 41 42 44 46 50 44 50
41 43 41 40 40 37 34 30 30 30 30 31 34 27 31 33 38 39 47 41 39 40 45 43 38 38 40 34 33 37 32 36 38 34 34 37 37 23 28 36 47 45 50 54 43
46 45 45 41 40 36 33 30 31 31 32 31 30 29 31 35 35 38 40 46 42 43 33 29 32 34 36 36 35 37 40 34 30 30 28 26 22 25 27 33 35 40 44 41 47
49 47 47 45 42 40 39 36 36 34 32 31 33 31 33 34 34 35 36 38 43 45 40 40 41 40 41 43 42 39 38 35 30 30 31 25 23 28 31 31 34 37 30 28 25
Wind_Direction
233 229 227 224 226 225 220 212 208 209 210 210 205 203 206 211 214 213 209 203 192 188 186 188 180 175 183 189 202 190 173 163 231 243 257 279 332 292 301 309 313 319 322 298 289
229 226 226 222 223 229 227 224 220 219 218 217 218 217 211 203 205 207 206 201 201 192 193 193 185 188 179 170 171 160 164 170 216 226 245 127 245 288 304 305 318 325 312 317 311
230 225 219 220 223 231 231 226 224 223 225 224 222 223 221 221 219 208 199 194 191 190 200 199 186 187 193 176 160 151 160 177 199 217 230 320 304 297 289 289 309 321 303 307 312
230 227 225 223 222 227 236 235 232 224 223 225 226 224 224 228 223 219 213 201 197 192 198 199 196 188 188 185 163 160 174 188 188 165 31 316 301 282 279 288 308 320 309 304 304
234 230 230 229 229 228 232 240 238 238 233 227 219 222 223 231 228 219 216 218 211 210 207 199 198 193 188 193 179 180 187 196 205 236 180 237 264 267 266 275 287 309 327 293 301
232 232 232 234 235 235 235 233 239 242 243 240 238 234 225 228 232 226 224 224 222 218 217 220 219 223 216 207 198 200 202 208 222 235 203 241 256 263 262 266 286 307 287 289 302
231 232 233 235 238 243 243 243 240 242 248 250 246 238 231 225 231 229 228 229 229 227 229 225 217 237 232 235 220 220 215 223 222 232 200 236 256 266 279 292 294 301 293 300 310
234 236 238 238 241 242 245 246 246 246 248 249 252 252 233 229 236 228 229 232 230 231 232 228 213 205 225 232 227 229 233 233 206 230 205 236 255 273 291 285 288 306 307 298 302
238 240 242 243 245 247 247 249 251 250 251 253 252 251 246 236 240 238 237 231 231 230 233 230 229 227 219 222 229 233 246 228 245 260 250 242 252 292 295 291 299 310 314 312 310
245 243 244 245 246 247 250 250 252 254 254 253 253 255 251 247 231 242 238 236 235 234 232 231 234 235 236 232 219 230 227 210 162 256 291 280 210 300 302 293 302 309 313 310 305
245 245 247 249 249 252 252 252 253 252 254 253 251 252 249 250 245 242 246 243 242 239 240 235 231 231 232 226 221 221 239 245 221 188 249 265 276 280 281 287 300 302 305 307 309
251 250 249 251 252 253 252 252 253 252 250 251 248 249 244 242 246 248 242 242 241 234 238 241 227 225 227 225 223 235 239 244 232 212 242 257 262 285 272 301 304 309 310 308 306
256 255 254 254 254 256 258 258 256 251 245 251 246 246 246 243 239 243 243 240 238 240 236 227 240 238 234 234 225 233 245 245 245 217 241 250 250 253 282 294 297 300 300 300 308
260 257 256 257 256 257 258 256 256 254 254 245 246 245 244 241 239 241 238 239 238 238 235 231 237 238 240 240 244 230 244 251 254 232 229 257 259 253 266 286 290 289 294 293 305
259 256 255 255 255 256 257 255 254 253 252 251 248 248 248 242 240 241 243 241 236 234 234 222 239 239 243 244 244 234 237 241 245 237 233 243 262 255 264 277 279 280 282 284 297
255 254 255 255 256 255 250 252 253 250 248 250 248 236 240 235 241 242 239 237 236 238 238 236 243 254 254 256 255 251 248 252 257 258 250 252 261 269 274 270 272 279 273 267 263
251 252 252 250 253 253 253 252 253 251 249 252 242 237 232 230 236 237 237 233 237 239 240 234 240 247 250 257 253 253 253 259 260 266 271 262 256 265 267 264 279 281 274 264 260
246 245 245 246 245 246 245 248 249 244 236 242 245 241 244 241 238 244 241 236 234 241 239 242 238 245 235 243 245 257 262 262 270 267 265 265 262 259 267 274 271 272 274 272 276
242 240 240 241 238 240 240 242 243 234 235 241 245 244 241 241 235 237 243 239 235 240 243 245 242 246 241 239 234 241 257 264 264 267 267 266 266 265 261 271 266 267 275 277 274
237 234 234 237 240 240 239 239 234 230 232 234 235 236 233 239 245 241 236 240 241 237 237 239 233 228 236 241 249 244 249 261 271 271 269 271 262 243 246 260 266 269 272 276 274
235 232 232 236 240 240 239 235 222 221 228 229 231 232 224 223 236 243 247 245 247 239 237 226 241 217 215 240 246 253 257 246 254 267 272 272 265 256 251 259 267 270 275 277 284
234 233 231 238 238 235 231 227 218 217 229 235 233 239 236 213 220 231 235 227 240 235 238 238 238 223 211 214 232 235 252 263 252 265 261 264 274 277 274 270 266 270 278 277 279
231 234 229 235 233 231 227 226 224 220 226 233 237 233 232 234 219 220 221 222 234 240 237 242 243 240 207 217 226 246 253 257 263 265 266 261 279 279 277 281 278 277 272 275 269
234 231 230 231 230 231 230 222 223 226 231 235 239 240 233 229 230 221 233 227 228 233 237 237 242 240 234 215 230 241 257 265 268 266 268 272 277 267 273 277 282 281 281 281 287
236 236 230 230 232 232 233 230 223 219 225 230 239 235 236 232 233 228 231 229 233 236 237 237 237 243 251 230 245 259 250 261 266 274 274 276 279 282 276 274 268 278 278 274 281
235 236 237 233 232 231 234 228 232 229 229 232 240 232 229 230 225 238 227 236 236 237 231 237 245 246 251 258 263 255 262 268 268 270 269 272 286 294 296 286 280 277 277 279 281
233 234 236 235 232 231 227 222 224 228 232 228 234 235 233 234 234 228 239 233 240 243 246 247 245 244 250 256 259 261 264 267 265 264 269 283 296 301 301 307 303 295 295 283 284
Height
5884 5884 5885 5885 5886 5887 5888 5888 5889 5890 5891 5892 5892 5893 5894 5895 5896 5897 5898 5900 5901 5902 5904 5905 5905 5906 5907 5908 5910 5917 5924 5925 5917 5913 5919 5917 5917 5919 5921 5922 5923 5924 5922 5922 5921
5882 5882 5883 5884 5884 5885 5886 5886 5887 5888 5889 5890 5891 5892 5893 5894 5895 5896 5898 5898 5900 5901 5903 5905 5907 5908 5908 5908 5910 5913 5920 5921 5916 5916 5915 5913 5916 5916 5917 5919 5919 5923 5922 5918 5916
5880 5881 5881 5882 5883 5883 5884 5884 5884 5886 5887 5888 5889 5891 5892 5893 5894 5895 5895 5897 5898 5899 5901 5903 5905 5907 5909 5910 5911 5913 5916 5916 5914 5912 5912 5912 5911 5911 5917 5920 5921 5920 5919 5914 5912
5877 5878 5879 5880 5880 5881 5882 5882 5882 5883 5884 5886 5887 5889 5890 5891 5894 5893 5894 5895 5896 5897 5900 5901 5903 5905 5908 5910 5911 5913 5912 5912 5912 5910 5908 5904 5905 5913 5914 5915 5918 5920 5917 5912 5909
5874 5875 5876 5877 5878 5879 5880 5880 5881 5881 5882 5883 5885 5887 5889 5889 5890 5891 5892 5893 5895 5896 5898 5900 5900 5901 5902 5904 5908 5910 5909 5910 5911 5912 5913 5915 5911 5910 5911 5911 5914 5918 5914 5910 5908
5871 5872 5874 5874 5875 5876 5877 5878 5879 5879 5880 5881 5883 5885 5886 5887 5887 5889 5890 5892 5893 5894 5895 5897 5900 5901 5903 5905 5907 5907 5908 5909 5909 5911 5911 5911 5909 5910 5913 5913 5914 5914 5912 5909 5906
5867 5869 5870 5871 5873 5874 5875 5875 5876 5877 5878 5879 5880 5882 5883 5885 5884 5886 5888 5890 5891 5892 5894 5896 5898 5900 5902 5904 5905 5907 5908 5909 5910 5910 5912 5907 5906 5906 5907 5909 5909 5909 5908 5906 5904
5863 5864 5866 5868 5869 5870 5871 5872 5874 5874 5876 5877 5878 5879 5880 5880 5882 5884 5886 5887 5889 5890 5891 5893 5895 5896 5898 5900 5902 5905 5907 5908 5908 5908 5911 5908 5904 5904 5904 5904 5905 5907 5906 5905 5904
5858 5860 5861 5863 5864 5866 5867 5868 5870 5872 5873 5874 5876 5876 5878 5880 5879 5881 5882 5884 5885 5886 5888 5889 5891 5893 5895 5896 5898 5901 5903 5904 5905 5907 5907 5907 5907 5902 5900 5899 5899 5901 5902 5901 5900
5853 5854 5856 5858 5859 5860 5862 5864 5866 5868 5870 5871 5872 5875 5876 5876 5877 5877 5878 5880 5881 5882 5884 5885 5887 5890 5892 5894 5896 5897 5896 5896 5898 5900 5899 5901 5905 5902 5896 5897 5898 5897 5896 5896 5895
5848 5849 5850 5852 5854 5855 5857 5859 5862 5864 5865 5866 5869 5869 5871 5871 5873 5875 5874 5876 5877 5879 5880 5882 5885 5887 5887 5889 5890 5891 5892 5893 5893 5895 5893 5894 5896 5900 5898 5895 5895 5893 5891 5891 5891
5842 5843 5845 5846 5848 5848 5850 5853 5853 5859 5860 5861 5863 5864 5866 5867 5869 5870 5871 5873 5874 5875 5876 5880 5880 5881 5882 5883 5885 5886 5887 5889 5889 5889 5888 5889 5890 5894 5894 5893 5889 5888 5887 5887 5886
5835 5837 5838 5839 5841 5842 5845 5848 5848 5852 5854 5855 5857 5859 5860 5863 5863 5864 5867 5867 5869 5871 5873 5875 5875 5877 5878 5880 5880 5881 5883 5883 5884 5885 5885 5885 5886 5888 5889 5889 5886 5883 5882 5881 5879
5826 5829 5830 5831 5835 5836 5839 5841 5843 5846 5848 5849 5851 5853 5856 5857 5860 5859 5861 5863 5865 5866 5867 5870 5869 5872 5873 5876 5877 5879 5879 5878 5880 5883 5882 5880 5882 5883 5884 5883 5881 5880 5877 5876 5875
5817 5820 5822 5823 5825 5829 5834 5833 5835 5839 5840 5843 5845 5848 5847 5853 5851 5854 5855 5858 5860 5861 5864 5867 5865 5866 5869 5872 5871 5875 5873 5874 5875 5877 5878 5880 5877 5878 5880 5880 5877 5876 5872 5871 5870
5808 5812 5813 5815 5818 5822 5823 5824 5829 5831 5833 5836 5839 5841 5842 5844 5845 5847 5850 5852 5853 5855 5859 5861 5860 5862 5865 5867 5866 5869 5868 5869 5870 5872 5873 5877 5874 5873 5876 5869 5865 5867 5867 5866 5865
5798 5801 5803 5807 5809 5812 5815 5817 5821 5821 5828 5828 5832 5832 5835 5839 5839 5841 5844 5847 5849 5850 5853 5855 5856 5857 5860 5860 5861 5861 5863 5864 5866 5866 5867 5869 5867 5867 5865 5860 5858 5858 5859 5859 5859
5788 5792 5794 5796 5800 5803 5806 5809 5811 5816 5819 5818 5818 5824 5827 5830 5834 5835 5837 5840 5842 5844 5846 5848 5850 5852 5853 5853 5856 5856 5857 5858 5860 5861 5861 5859 5860 5861 5858 5851 5851 5850 5851 5851 5853
5779 5783 5784 5788 5791 5794 5797 5799 5805 5807 5808 5810 5812 5815 5818 5822 5826 5827 5828 5832 5835 5838 5841 5842 5845 5845 5846 5846 5850 5852 5851 5854 5853 5853 5854 5855 5854 5855 5854 5844 5846 5847 5847 5847 5848
5770 5774 5776 5779 5782 5785 5788 5793 5797 5798 5799 5801 5803 5806 5808 5812 5815 5818 5821 5824 5828 5831 5832 5836 5839 5841 5842 5840 5843 5844 5847 5846 5846 5846 5846 5847 5849 5846 5844 5840 5837 5837 5838 5839 5840
5761 5765 5768 5771 5774 5777 5780 5784 5788 5789 5789 5792 5793 5795 5802 5806 5807 5809 5812 5816 5818 5823 5825 5829 5829 5836 5837 5835 5837 5839 5837 5841 5842 5840 5838 5840 5840 5840 5839 5838 5831 5832 5832 5831 5832
5751 5755 5760 5762 5767 5769 5772 5774 5777 5780 5781 5784 5789 5791 5795 5799 5802 5804 5804 5806 5808 5814 5817 5820 5823 5826 5831 5830 5831 5831 5831 5833 5835 5836 5833 5831 5832 5833 5833 5832 5831 5828 5826 5822 5822
5741 5744 5750 5752 5757 5760 5761 5765 5769 5771 5772 5775 5779 5784 5789 5792 5796 5796 5798 5801 5803 5805 5809 5811 5814 5818 5825 5824 5825 5826 5827 5826 5827 5828 5828 5829 5828 5828 5827 5823 5821 5819 5817 5816 5817
5731 5733 5738 5743 5746 5750 5754 5757 5761 5764 5766 5770 5772 5777 5784 5785 5786 5790 5792 5797 5799 5800 5803 5806 5808 5811 5817 5820 5818 5819 5820 5819 5820 5821 5823 5823 5824 5822 5819 5816 5810 5809 5806 5806 5804
5719 5721 5726 5731 5735 5740 5746 5751 5753 5756 5759 5762 5764 5770 5773 5777 5780 5782 5783 5789 5791 5793 5797 5799 5802 5805 5808 5811 5813 5813 5816 5816 5814 5814 5815 5816 5815 5814 5813 5809 5806 5801 5798 5797 5798
5706 5711 5716 5723 5727 5733 5737 5742 5745 5748 5751 5755 5757 5762 5764 5767 5771 5774 5779 5780 5784 5788 5790 5793 5796 5799 5801 5803 5805 5807 5807 5808 5809 5808 5806 5807 5808 5806 5804 5800 5797 5792 5788 5789 5788
5692 5698 5703 5710 5716 5721 5724 5730 5733 5736 5742 5747 5749 5753 5755 5760 5764 5768 5772 5777 5777 5779 5783 5785 5789 5794 5796 5796 5797 5798 5799 5802 5802 5799 5799 5800 5800 5797 5795 5792 5788 5783 5782 5782 5779